Regional Weather Roundup
Issued by NWS

Home | Current Version | Previous Version | Graphics & Text | Print | Product List | Glossary On
Versions: 1 2 3 4 5 6 7 8 9 10 11 12 13 14 15 16 17 18 19 20 21 22 23 24 25 26 27 28 29 30 31 32 33 34 35 36 37 38 39 40 41 42 43 44 45 46 47 48 49 50
000
ASUS44 KMEG 280900
RWRTN
TENNESSEE HOURLY STATE WEATHER ROUNDUP
NATIONAL WEATHER SERVICE MEMPHIS TN
400 AM CDT FRI AUG 28 2015

TNZ002-004-019-021-049-052-054-088>092-281000-
WEST TENNESSEE

CITY           SKY/WX    TMP DP  RH WIND       PRES   REMARKS
MEMPHIS INTL   CLEAR     67  60  78 VRB5      30.05R
NWS MEMPHIS      N/A     60 N/A N/A MISG        N/A
JACKSON        CLEAR     56  54  93 CALM      30.06S FOG
DYERSBURG      CLEAR    N/A N/A N/A MISG        N/A
UNION CITY     CLEAR    N/A N/A N/A CALM      30.07S
PARIS          CLEAR     55  54  94 CALM      30.09S
LEXINGTON      CLEAR     55  55 100 NE3       30.06R
$$

TNZ008-025-027-028-033-062-065-066-281000-
NORTH MIDDLE TENNESSEE

CITY           SKY/WX    TMP DP  RH WIND       PRES   REMARKS
NASHVILLE      PTCLDY    63  56  78 CALM      30.09R
CLARKSVILLE    CLEAR     59  55  87 CALM      30.09S
COOKEVILLE     CLEAR     57  57 100 CALM      30.10R
CROSSVILLE     CLEAR     59  55  87 CALM      30.14R
$$

TNZ061-075-076-078-094-096-097-281000-
SOUTH MIDDLE TENNESSEE

CITY           SKY/WX    TMP DP  RH WIND       PRES   REMARKS
FAYETTEVILLE   CLEAR     61  57  88 CALM      30.07S
TULLAHOMA      CLEAR     63  57  82 CALM      30.09S
WINCHESTER     CLEAR     61  59  94 CALM      30.09R
COLUMBIA       CLEAR     59  59 100 CALM      30.06S
SHELBYVILLE    CLEAR     61  59  94 CALM      30.09R
$$

TNZ017-018-042-046-047-281000-
NORTHEAST TENNESSEE

CITY           SKY/WX    TMP DP  RH WIND       PRES   REMARKS
TRI CITIES     PTCLDY    58  57  97 CALM      30.14S
ELIZABETHTON   SUNNY     59  57  94 CALM      30.15S
$$

TNZ012-013-036-069-073-074-281000-
CENTRAL EAST TENNESSEE

CITY           SKY/WX    TMP DP  RH WIND       PRES   REMARKS
KNOXVILLE      PTCLDY    68  61  78 E5        30.10R
OAK RIDGE      PTCLDY    64  59  83 CALM      30.12R
GATLINBURG     SUNNY     61  59  94 CALM      30.10R
$$

TNZ083-085-099-281000-
SOUTHEAST TENNESSEE

CITY           SKY/WX    TMP DP  RH WIND       PRES   REMARKS
CHATTANOOGA    CLEAR     68  61  78 CALM      30.09R
$$

SKY/WX REPORTED AS FAIR MEANS FEW OR NO CLOUDS BELOW
12 THOUSAND FEET.



USA.gov is the U.S. government's official web portal to all federal, state and local government web resources and services.